Temperature
18 17 17 17 17 16 16 16 16 15 15 15 15 15 15 15 15 14 14 14 14 14 14 14 14 14 14 14 13 13 13 13 13 13 13 13 13 13 13 13 13 12 12
18 17 17 17 17 16 16 16 16 16 15 15 15 15 15 15 15 15 14 14 14 14 14 14 14 14 14 14 13 13 13 13 13 12 12 12 12 13 13 13 12 12 12
18 17 17 17 17 16 16 16 16 16 16 15 15 15 15 15 15 15 15 15 15 15 14 14 14 14 14 14 13 13 13 12 12 12 11 11 11 12 12 12 12 12 11
18 17 17 17 17 16 16 16 16 16 16 15 15 15 15 15 15 15 15 15 15 15 15 14 14 14 14 13 13 13 13 12 12 11 11 11 11 10 11 11 11 11 11
18 17 17 17 16 16 16 16 16 16 16 15 15 15 15 15 15 14 14 14 14 14 14 14 14 14 13 13 13 12 12 12 11 11 10 10 10 10 10 10 10 10 10
17 17 17 16 16 16 16 16 16 16 16 16 15 15 15 15 14 14 14 14 14 14 14 14 13 13 13 12 12 12 11 11 10 10 10 9 9 9 9 9 9 9 9
17 16 16 16 15 15 15 15 15 15 15 15 15 15 15 14 14 14 14 13 13 13 13 13 12 12 12 12 11 11 11 10 10 9 9 9 9 9 9 9 9 9 9
16 15 15 15 15 15 15 15 15 14 14 14 14 14 14 14 14 13 13 13 13 12 12 12 11 11 11 11 10 10 10 9 9 9 9 8 8 8 8 8 8 8 8
15 15 14 14 14 14 14 14 13 13 14 14 14 13 13 13 13 13 12 12 12 12 11 11 10 10 10 10 9 9 9 8 8 8 8 8 8 7 7 7 7 7 7
14 14 13 13 13 13 12 12 12 12 12 12 13 13 13 13 12 12 12 11 11 11 10 10 9 9 9 8 8 8 7 7 7 7 7 7 7 7 7 7 6 6 6
13 13 12 12 12 11 11 11 11 11 11 12 12 12 12 12 11 11 11 10 10 10 9 9 8 8 8 8 7 7 7 6 6 6 6 6 6 6 6 6 6 6 5
12 12 12 11 10 10 10 9 10 10 10 11 11 11 11 11 10 10 10 9 9 9 8 8 7 7 7 7 6 6 6 6 5 5 5 5 5 5 5 5 5 5 5
12 11 11 10 10 9 8 8 9 9 10 10 10 10 10 10 10 9 9 8 8 8 7 7 6 6 6 6 6 5 5 5 5 5 4 4 4 4 4 4 4 4 4
12 11 11 10 9 8 8 8 8 9 9 10 10 9 9 9 9 8 8 8 7 7 6 6 5 5 5 5 5 5 4 4 4 4 4 4 4 3 3 3 3 3 3
11 11 10 10 9 8 8 8 8 9 9 9 9 9 9 8 8 8 7 7 6 5 5 4 4 4 4 4 4 4 4 3 3 3 3 3 3 3 3 3 3 3 2
11 11 10 10 9 9 8 8 9 9 9 9 9 9 8 8 7 7 6 6 5 4 3 3 3 3 3 3 3 3 3 2 2 2 2 2 2 2 2 2 2 2 2
10 10 10 10 9 9 9 9 9 9 9 9 8 8 8 7 7 6 5 4 4 3 2 2 2 2 2 2 2 2 2 2 2 2 2 2 2 2 2 2 2 2 1
9 10 10 10 9 9 9 9 9 9 9 8 8 8 7 7 6 5 4 3 3 2 1 1 1 1 1 1 1 1 1 1 1 1 1 1 1 1 1 1 1 1 1
8 9 9 9 9 9 9 9 9 9 8 8 8 7 7 6 5 5 4 2 2 1 1 0 0 0 0 1 1 1 1 1 1 1 1 1 1 1 1 1 1 0 0
8 8 8 9 8 8 8 8 8 8 8 8 7 7 6 5 5 4 3 2 1 1 0 0 -0 -0 0 0 0 0 1 1 1 1 0 0 0 0 0 0 0 -0 -0
7 7 8 8 8 8 8 8 8 8 7 7 6 6 5 5 4 3 3 2 1 0 0 -0 -0 -0 0 0 0 0 0 0 0 0 0 0 0 -0 -0 -0 -0 -1 -1
6 7 7 7 7 7 7 7 7 6 6 6 5 5 4 4 3 3 2 1 1 0 0 -0 0 0 0 0 0 0 0 0 0 0 0 0 -0 -0 -0 -1 -1 -1 -1
6 6 6 6 6 6 6 6 6 6 5 5 5 4 4 3 3 3 2 1 1 1 0 0 0 0 0 0 0 0 0 0 0 0 -0 -0 -0 -1 -1 -1 -1 -1 -1
5 6 6 6 6 6 6 5 5 5 5 4 4 4 3 3 3 2 2 1 1 1 1 1 0 0 0 0 0 -0 -0 -0 -0 -0 -0 -1 -1 -1 -1 -1 -1 -1 -2
5 5 5 5 5 5 5 5 5 4 4 4 3 3 3 2 2 2 2 2 1 1 1 1 0 0 0 0 0 -0 -0 -0 -1 -1 -1 -1 -1 -1 -1 -1 -1 -2 -2
4 4 4 4 4 4 4 4 4 4 3 3 3 3 2 2 2 2 1 1 1 1 1 0 0 0 0 0 -0 -0 -0 -1 -1 -1 -0 -0 -1 -1 -1 -1 -1 -2 -2
Wind_Speed
8 8 9 8 7 6 7 9 9 8 6 5 5 5 4 3 3 3 5 5 5 5 4 2 3 3 3 3 4 3 4 4 3 3 5 6 8 9 8 5 4 3 3
8 9 9 9 8 8 7 7 8 8 7 6 5 4 4 3 3 3 4 4 3 2 2 2 1 1 2 4 4 3 3 3 2 3 3 4 4 5 6 4 3 1 0
10 10 10 9 9 8 8 6 7 7 7 6 5 3 3 2 2 3 3 2 2 1 1 1 1 2 2 3 4 4 4 4 4 4 4 3 4 4 3 1 1 1 1
8 10 10 10 10 8 6 6 6 6 5 6 6 6 5 4 4 3 3 3 2 2 3 3 2 2 2 2 3 3 3 3 4 3 4 5 4 3 4 3 1 1 0
8 8 9 9 9 8 7 6 6 6 5 5 6 6 4 4 3 3 4 3 3 4 4 3 3 2 2 3 3 3 3 3 4 4 3 4 4 5 5 4 3 2 1
8 8 8 9 8 7 7 5 6 6 6 5 5 5 6 5 5 4 3 3 3 3 4 3 3 3 2 3 3 3 4 4 4 4 3 3 3 3 4 5 4 3 1
6 7 8 8 8 8 8 7 7 6 6 6 5 5 5 5 5 4 3 3 2 3 3 3 3 2 3 3 3 3 4 3 4 4 3 3 3 2 2 3 3 2 1
3 5 7 8 8 9 8 8 8 7 7 6 6 6 6 5 4 5 4 4 3 4 4 3 3 3 3 4 3 3 3 2 3 3 3 2 2 2 1 1 1 2 1
2 4 6 7 8 9 9 8 8 8 7 7 7 7 7 6 6 5 5 4 4 3 4 2 2 2 3 3 3 2 2 2 1 2 2 1 1 2 2 1 0 1 2
2 3 4 6 7 7 8 8 8 8 8 7 7 7 7 7 6 5 5 4 4 3 2 1 1 2 2 3 2 1 1 1 1 1 2 2 2 2 2 2 2 1 1
2 2 4 5 7 7 7 7 8 8 8 8 7 7 7 6 5 5 5 4 4 3 2 2 2 2 2 3 2 1 2 1 2 2 3 3 4 3 3 3 2 2 2
2 3 5 6 6 7 7 7 7 8 7 7 7 7 7 6 5 5 5 4 3 3 2 2 2 2 3 3 3 2 3 3 3 3 4 4 3 4 4 3 3 3 2
3 3 5 6 7 7 7 7 7 8 7 7 8 7 7 6 5 5 5 4 3 2 2 2 3 3 3 3 4 3 4 4 5 5 5 4 5 4 4 4 3 2 2
3 4 5 6 8 8 8 8 8 8 8 8 8 7 7 6 6 6 5 3 3 2 2 3 3 3 3 3 3 3 4 5 6 6 6 6 5 4 4 4 4 3 3
2 4 6 6 8 8 9 9 8 8 8 8 8 7 7 7 6 5 4 3 3 2 2 2 2 2 2 2 3 3 4 5 5 5 6 6 7 8 6 5 4 4 3
4 5 6 7 8 9 9 9 9 9 8 8 8 7 7 7 6 5 5 4 3 2 2 2 2 2 2 4 3 3 3 4 5 5 4 5 5 7 8 9 9 7 4
5 5 5 7 8 9 9 10 10 9 9 8 8 8 8 7 6 6 5 5 4 3 3 2 3 4 4 4 4 4 4 4 4 4 3 3 4 5 3 5 7 8 8
7 5 3 4 6 7 8 9 9 10 9 8 8 8 8 7 7 6 6 5 4 4 3 3 3 4 4 5 5 5 5 4 3 3 3 3 3 3 3 4 4 3 4
7 6 3 2 4 6 8 10 9 9 9 9 9 9 9 8 8 7 6 5 4 4 3 3 3 4 4 5 5 5 3 3 3 2 2 2 3 3 3 2 1 1 1
6 6 4 2 3 4 7 9 9 9 9 9 8 8 8 8 8 7 6 5 4 4 4 4 3 4 4 7 6 4 2 3 3 3 2 2 2 3 1 1 1 1 1
6 6 5 4 3 4 6 7 7 7 7 7 8 8 8 8 7 7 6 6 5 5 5 5 4 4 6 7 8 7 3 2 3 3 2 3 4 3 2 1 1 1 1
5 6 5 4 3 3 4 4 5 5 6 7 7 7 7 7 7 7 7 6 6 6 6 5 5 5 5 7 8 10 8 5 3 3 3 4 6 4 4 3 3 2 1
4 4 3 2 2 2 3 4 4 6 7 7 7 7 7 7 7 8 8 7 6 6 6 5 5 5 5 7 12 11 11 10 5 4 5 5 6 5 4 5 6 3 2
3 3 2 1 0 1 2 3 5 6 7 7 7 7 7 7 7 7 7 7 7 7 6 6 6 5 5 5 5 6 6 9 7 5 6 7 7 6 6 5 4 3 4
2 2 2 2 1 1 1 2 5 6 6 6 6 7 7 7 7 7 7 8 7 8 8 7 6 6 6 8 12 8 6 6 6 5 4 3 3 4 4 4 5 5 4
3 3 3 3 2 1 1 2 4 5 6 6 6 6 6 6 6 6 6 10 10 13 14 11 9 7 9 9 12 14 13 13 12 7 4 5 6 6 6 6 5 5 5
Wind_Direction
169 160 158 156 158 167 166 169 171 175 169 170 172 174 184 181 177 169 176 181 186 192 198 206 227 236 237 242 248 251 255 254 253 275 285 270 254 248 244 231 232 246 228
179 167 162 161 164 170 173 170 169 171 170 173 172 167 161 166 167 152 157 159 158 172 186 208 230 244 254 265 267 266 259 254 226 225 275 295 297 269 243 215 197 203 160
192 177 171 168 168 171 172 170 163 161 162 156 141 132 125 124 153 164 159 133 142 177 164 237 270 268 245 252 261 264 256 254 247 217 223 257 271 322 323 256 175 183 170
202 181 176 171 171 164 152 153 150 153 155 154 158 164 167 174 182 167 147 134 133 91 56 25 353 330 310 291 284 284 274 260 260 256 233 230 238 265 296 310 308 323 16
196 176 171 164 154 141 142 152 152 154 157 163 167 171 166 159 139 129 137 146 125 102 69 24 1 345 330 319 312 304 292 271 261 259 259 257 257 240 243 269 283 303 350
184 169 156 142 137 136 141 154 158 157 154 154 154 159 153 143 139 143 147 142 129 116 93 48 15 3 358 339 327 314 300 289 282 276 265 253 248 244 239 248 250 249 245
161 154 146 144 146 151 157 163 164 158 154 149 143 138 136 136 142 142 137 127 115 105 88 58 22 7 353 337 327 312 300 301 294 289 286 287 286 287 267 255 263 252 214
145 158 159 156 158 162 165 170 167 160 151 140 125 111 103 101 101 93 92 91 90 88 73 51 19 0 353 339 329 309 297 304 303 306 311 308 340 345 335 298 281 276 254
118 148 152 158 163 167 171 173 163 153 144 134 122 113 105 99 98 93 86 84 83 82 64 41 10 0 353 342 328 311 318 335 342 350 345 358 6 1 354 348 331 220 232
114 140 150 156 160 160 160 160 155 147 140 132 125 120 110 103 103 104 101 92 83 76 62 36 9 1 353 342 336 327 358 23 32 26 29 41 18 18 13 6 3 14 207
117 138 140 140 141 141 149 154 147 140 137 130 124 120 113 110 111 106 97 89 81 71 52 33 17 13 2 347 352 24 39 63 71 57 66 58 40 41 25 22 28 33 37
120 134 142 140 143 150 155 154 146 143 142 136 132 124 119 120 117 109 100 91 86 76 62 41 28 28 19 10 23 52 48 64 76 66 71 65 58 50 33 37 43 41 33
152 157 157 160 163 164 163 157 151 146 141 136 133 129 133 135 126 116 106 96 90 83 73 63 50 43 36 31 35 56 65 65 64 61 64 61 68 59 46 47 47 42 43
178 186 180 178 175 172 168 162 157 150 146 143 143 145 145 137 125 116 112 106 97 92 82 80 73 65 53 48 48 63 82 80 71 63 59 56 61 59 54 52 36 41 58
234 212 197 190 181 176 170 164 160 154 151 151 151 149 137 128 124 126 126 121 115 112 106 110 115 103 86 71 69 74 97 102 96 82 74 70 70 66 63 63 43 42 57
261 232 209 197 189 182 175 167 164 160 156 158 156 146 139 139 142 146 144 144 146 144 139 131 124 113 102 105 102 105 100 105 108 104 95 89 70 73 70 69 62 59 67
293 253 221 207 197 186 175 173 168 158 160 161 156 152 151 154 157 158 158 165 167 158 150 138 126 116 118 129 122 112 103 102 104 107 100 99 91 75 63 70 70 62 59
320 300 249 214 196 176 164 158 154 158 162 162 160 158 159 161 159 162 168 167 156 155 152 146 134 127 135 138 132 122 107 108 107 105 107 113 112 91 74 73 71 71 61
326 318 300 235 178 161 155 150 154 158 164 169 167 164 164 163 164 169 168 161 156 158 160 154 150 146 151 158 152 141 136 141 147 139 116 103 125 121 98 87 81 90 121
344 337 341 29 98 128 137 147 158 165 176 175 167 162 162 165 170 171 165 159 162 170 167 168 173 174 180 180 176 173 166 165 169 175 177 169 151 153 130 94 114 113 136
349 353 13 46 71 102 128 151 162 177 172 158 154 157 161 164 166 165 163 163 167 171 177 182 194 201 205 197 195 197 190 186 181 186 194 195 186 192 216 226 179 186 148
5 9 22 37 55 90 124 151 169 162 147 146 152 157 161 166 167 164 167 171 175 181 190 197 207 214 210 208 211 214 216 208 189 201 201 193 192 206 231 239 234 234 217
7 9 25 43 62 114 146 170 170 153 150 154 163 166 168 170 169 170 175 181 188 195 199 202 210 213 206 213 220 221 222 222 211 206 204 198 207 223 239 245 243 236 213
359 358 1 5 312 180 178 172 156 155 161 171 175 174 174 177 179 184 186 192 198 203 205 206 212 211 206 206 208 211 224 226 226 221 220 224 231 229 234 246 247 219 212
348 344 331 316 292 241 190 163 158 162 174 181 182 182 185 186 191 197 203 204 208 206 206 209 206 205 216 217 209 200 204 201 207 192 187 194 207 218 223 225 224 217 219
339 332 328 323 312 288 232 184 173 176 184 191 193 193 194 194 197 202 215 220 219 224 225 221 215 217 221 222 218 218 218 217 215 207 200 210 215 219 221 221 219 214 213
Height
1504 1507 1509 1512 1515 1518 1520 1523 1525 1528 1531 1534 1536 1539 1541 1544 1546 1548 1549 1551 1552 1553 1554 1555 1556 1556 1556 1556 1556 1556 1556 1555 1555 1553 1551 1550 1549 1548 1547 1547 1547 1547 1546
1501 1503 1506 1509 1512 1515 1517 1520 1523 1525 1528 1531 1534 1536 1539 1541 1543 1545 1546 1548 1549 1550 1551 1551 1552 1552 1552 1552 1552 1552 1551 1551 1551 1550 1548 1545 1544 1543 1543 1543 1543 1543 1543
1497 1499 1503 1505 1508 1511 1514 1517 1519 1522 1525 1528 1530 1533 1535 1537 1539 1541 1543 1544 1545 1546 1547 1547 1548 1548 1548 1547 1547 1547 1547 1546 1546 1546 1545 1543 1541 1540 1540 1540 1540 1540 1539
1494 1496 1498 1501 1504 1507 1510 1513 1516 1519 1522 1525 1527 1529 1531 1533 1535 1537 1539 1540 1541 1542 1543 1543 1543 1543 1543 1542 1542 1542 1541 1541 1540 1540 1540 1540 1539 1538 1535 1536 1536 1536 1536
1489 1492 1494 1497 1500 1503 1506 1509 1512 1515 1518 1521 1523 1525 1527 1529 1532 1533 1535 1536 1537 1538 1538 1539 1538 1538 1537 1537 1536 1536 1535 1535 1534 1534 1534 1534 1534 1533 1533 1531 1531 1532 1532
1485 1488 1491 1494 1496 1499 1502 1505 1508 1511 1514 1516 1519 1521 1523 1525 1527 1529 1530 1531 1532 1532 1533 1533 1533 1532 1532 1531 1531 1530 1530 1529 1529 1528 1528 1529 1528 1528 1528 1527 1526 1527 1527
1481 1484 1487 1490 1492 1495 1499 1501 1504 1507 1510 1512 1514 1517 1519 1521 1523 1525 1526 1526 1527 1527 1527 1528 1527 1527 1526 1526 1525 1524 1524 1523 1523 1523 1523 1523 1523 1523 1523 1522 1522 1522 1522
1479 1481 1484 1486 1489 1492 1495 1497 1500 1503 1505 1508 1510 1513 1515 1517 1519 1520 1521 1522 1522 1522 1522 1522 1522 1521 1521 1520 1519 1519 1518 1518 1518 1517 1517 1517 1517 1518 1518 1518 1518 1518 1518
1478 1480 1482 1484 1486 1488 1491 1493 1496 1498 1501 1503 1506 1508 1511 1513 1514 1516 1517 1517 1517 1517 1517 1517 1517 1516 1516 1515 1514 1514 1513 1513 1513 1512 1512 1512 1512 1512 1513 1513 1514 1515 1514
1477 1479 1480 1481 1483 1485 1487 1490 1492 1494 1497 1500 1502 1505 1507 1509 1510 1511 1512 1512 1512 1512 1512 1512 1512 1511 1510 1510 1509 1509 1508 1508 1508 1508 1507 1507 1507 1507 1508 1508 1509 1509 1510
1476 1477 1478 1479 1480 1482 1484 1486 1489 1491 1494 1496 1499 1501 1503 1505 1506 1507 1507 1508 1508 1508 1507 1507 1507 1506 1505 1505 1504 1504 1504 1503 1503 1503 1503 1503 1503 1503 1503 1504 1504 1504 1505
1475 1476 1476 1476 1477 1479 1480 1483 1485 1488 1491 1493 1496 1497 1499 1501 1502 1502 1503 1503 1503 1503 1502 1502 1502 1501 1501 1500 1500 1499 1499 1499 1499 1499 1499 1499 1499 1499 1499 1499 1500 1500 1500
1473 1474 1474 1474 1475 1476 1478 1480 1483 1485 1488 1490 1492 1494 1496 1497 1498 1498 1499 1499 1499 1498 1498 1497 1497 1496 1496 1496 1495 1495 1495 1495 1495 1495 1495 1495 1495 1495 1495 1496 1496 1496 1496
1471 1472 1472 1472 1473 1474 1476 1478 1480 1483 1485 1488 1489 1491 1492 1493 1494 1494 1495 1494 1494 1494 1493 1492 1492 1492 1492 1492 1491 1491 1491 1491 1491 1492 1492 1492 1492 1492 1492 1493 1493 1493 1493
1469 1469 1469 1470 1471 1472 1473 1475 1477 1480 1483 1485 1486 1488 1489 1490 1490 1490 1490 1490 1490 1489 1488 1488 1488 1487 1487 1488 1488 1488 1488 1488 1488 1488 1489 1489 1489 1489 1490 1490 1490 1490 1491
1467 1467 1467 1467 1468 1469 1470 1472 1474 1477 1479 1481 1483 1484 1485 1486 1486 1486 1486 1485 1485 1485 1484 1484 1484 1484 1484 1484 1484 1485 1485 1485 1486 1486 1486 1487 1487 1487 1487 1487 1487 1488 1488
1465 1464 1463 1463 1464 1465 1467 1469 1471 1474 1476 1478 1479 1480 1481 1482 1482 1482 1481 1481 1481 1481 1481 1481 1481 1481 1481 1481 1482 1482 1483 1483 1484 1484 1484 1485 1485 1485 1485 1485 1485 1486 1485
1462 1461 1460 1460 1461 1462 1464 1466 1468 1470 1472 1474 1475 1476 1477 1477 1477 1477 1477 1477 1477 1477 1478 1478 1478 1478 1479 1479 1479 1480 1480 1481 1482 1482 1483 1483 1483 1483 1483 1483 1483 1483 1483
1459 1458 1457 1457 1458 1459 1460 1462 1464 1466 1468 1469 1471 1472 1473 1473 1473 1473 1473 1473 1474 1474 1475 1476 1476 1476 1477 1477 1478 1478 1479 1479 1480 1480 1480 1481 1481 1481 1481 1481 1481 1481 1481
1457 1455 1455 1454 1455 1456 1457 1459 1460 1462 1463 1465 1467 1468 1469 1469 1469 1469 1469 1470 1471 1471 1472 1473 1474 1474 1475 1475 1476 1476 1477 1477 1478 1478 1478 1479 1479 1479 1479 1479 1478 1478 1479
1455 1454 1453 1453 1453 1454 1455 1456 1457 1458 1460 1461 1463 1464 1465 1465 1466 1466 1466 1467 1467 1468 1469 1470 1471 1472 1473 1473 1474 1474 1475 1475 1476 1476 1476 1476 1477 1477 1477 1477 1476 1476 1477
1455 1453 1452 1452 1452 1452 1453 1453 1454 1455 1456 1458 1459 1460 1461 1461 1462 1462 1463 1463 1464 1465 1466 1467 1468 1469 1470 1471 1471 1472 1473 1473 1473 1474 1474 1474 1474 1474 1474 1474 1474 1474 1474
1454 1453 1452 1451 1451 1451 1451 1451 1452 1453 1453 1454 1455 1456 1457 1457 1458 1459 1459 1460 1461 1462 1463 1464 1465 1466 1467 1468 1469 1469 1470 1470 1471 1471 1471 1471 1472 1472 1472 1472 1472 1472 1472
1453 1452 1451 1450 1450 1449 1449 1449 1449 1450 1450 1451 1452 1452 1453 1453 1454 1455 1456 1456 1457 1458 1459 1460 1461 1462 1463 1464 1465 1466 1467 1467 1467 1468 1468 1468 1468 1468 1468 1469 1469 1469 1469
1452 1450 1449 1448 1448 1447 1447 1447 1447 1447 1447 1447 1448 1448 1449 1449 1450 1451 1452 1452 1454 1455 1456 1457 1458 1459 1459 1461 1462 1462 1463 1463 1464 1464 1464 1464 1465 1465 1465 1465 1465 1465 1465
1449 1448 1447 1446 1445 1444 1444 1444 1444 1443 1443 1443 1444 1444 1445 1445 1446 1447 1448 1448 1450 1450 1451 1452 1453 1454 1455 1456 1457 1458 1458 1459 1459 1459 1459 1460 1460 1460 1461 1461 1461 1461 1461